| time (UTC) | temp F | wind direction | speed knots | gust knots | rain 1hr in | rain 24hr in | rain mn in | humidity % | barometer mb |
| 20260905111508 | 79 | 207 | 0.0 | 0.0 | 0.00 | 0.03 | 0.00 | 100 | 1016.0 |
| 20260905111007 | 78 | 207 | 0.0 | 0.0 | 0.00 | 0.03 | 0.00 | 100 | 1016.0 |
| 20260905110511 | 78 | 207 | 0.0 | 0.0 | 0.00 | 0.03 | 0.00 | 100 | 1015.9 |
| 20260905110008 | 79 | 207 | 0.0 | 0.0 | 0.00 | 0.03 | 0.00 | 100 | 1015.9 |
| 20260905105506 | 79 | 207 | 0.0 | 0.0 | 0.00 | 0.03 | 0.00 | 100 | 1015.9 |
| 20260905105009 | 78 | 206 | 0.0 | 0.0 | 0.00 | 0.03 | 0.00 | 100 | 1015.7 |
| 20260905104506 | 79 | 206 | 0.0 | 0.0 | 0.00 | 0.03 | 0.00 | 100 | 1015.7 |
| 20260905104010 | 78 | 206 | 0.0 | 0.0 | 0.00 | 0.03 | 0.00 | 100 | 1015.6 |
| 20260905103505 | 78 | 206 | 0.0 | 0.0 | 0.00 | 0.03 | 0.00 | 100 | 1015.6 |
| 20260905103004 | 78 | 206 | 0.0 | 0.0 | 0.00 | 0.03 | 0.00 | 100 | 1015.6 |
| 20260905102505 | 79 | 206 | 0.0 | 0.0 | 0.00 | 0.03 | 0.00 | 100 | 1015.6 |
| 20260905102009 | 79 | 206 | 0.0 | 0.0 | 0.00 | 0.03 | 0.00 | 100 | 1015.7 |
| 20260905101502 | 79 | 206 | 0.0 | 0.0 | 0.00 | 0.03 | 0.00 | 100 | 1015.7 |
| 20260905101002 | 79 | 206 | 0.0 | 0.0 | 0.00 | 0.03 | 0.00 | 100 | 1015.6 |
| 20260905100502 | 79 | 206 | 0.0 | 0.0 | 0.00 | 0.03 | 0.00 | 100 | 1015.6 |
| 20260905100004 | 79 | 206 | 0.0 | 0.0 | 0.00 | 0.03 | 0.00 | 100 | 1015.5 |
| 20260905095501 | 79 | 206 | 0.0 | 0.0 | 0.00 | 0.03 | 0.00 | 100 | 1015.5 |
| 20260905095003 | 79 | 206 | 0.0 | 0.0 | 0.00 | 0.03 | 0.00 | 100 | 1015.7 |
| 20260905094500 | 79 | 206 | 0.0 | 0.0 | 0.00 | 0.03 | 0.00 | 100 | 1015.6 |
| 20260905094001 | 79 | 206 | 0.0 | 0.0 | 0.00 | 0.03 | 0.00 | 100 | 1015.6 |
| 20260905093501 | 79 | 206 | 0.0 | 0.0 | 0.00 | 0.03 | 0.00 | 100 | 1015.7 |
| 20260905093001 | 79 | 206 | 0.0 | 0.0 | 0.00 | 0.03 | 0.00 | 100 | 1015.7 |
| 20260905092602 | 79 | 206 | 0.0 | 0.0 | 0.00 | 0.03 | 0.00 | 100 | 1015.7 |
| 20260905092100 | 79 | 206 | 0.0 | 0.0 | 0.00 | 0.03 | 0.00 | 100 | 1015.6 |
| 20260905091636 | 79 | 206 | 0.0 | 0.0 | 0.00 | 0.03 | 0.00 | 100 | 1015.5 |
| 20260905091101 | 79 | 206 | 0.0 | 0.0 | 0.00 | 0.03 | 0.00 | 100 | 1015.6 |
| 20260905090600 | 79 | 206 | 0.0 | 0.0 | 0.00 | 0.03 | 0.00 | 100 | 1015.7 |
| 20260905090100 | 79 | 206 | 0.0 | 0.0 | 0.00 | 0.03 | 0.00 | 100 | 1015.6 |
| 20260905085600 | 79 | 206 | 0.0 | 0.0 | 0.00 | 0.03 | 0.00 | 100 | 1015.5 |
| 20260905085059 | 79 | 206 | 0.0 | 0.0 | 0.00 | 0.03 | 0.00 | 100 | 1015.5 |
| 20260905084613 | 79 | 205 | 0.0 | 0.0 | 0.00 | 0.03 | 0.00 | 100 | 1015.6 |
| 20260905084059 | 79 | 205 | 0.0 | 0.9 | 0.00 | 0.03 | 0.00 | 100 | 1015.6 |
| 20260905083559 | 79 | 205 | 0.0 | 1.7 | 0.00 | 0.03 | 0.00 | 100 | 1015.5 |
| 20260905083059 | 79 | 205 | 0.0 | 1.7 | 0.00 | 0.03 | 0.00 | 100 | 1015.5 |
| 20260905082558 | 79 | 208 | 0.0 | 1.7 | 0.00 | 0.03 | 0.00 | 100 | 1015.5 |
| 20260905082059 | 79 | 209 | 0.0 | 1.7 | 0.00 | 0.03 | 0.00 | 100 | 1015.5 |
| 20260905081558 | 79 | 209 | 0.0 | 0.0 | 0.00 | 0.03 | 0.00 | 100 | 1015.6 |
| 20260905081057 | 79 | 210 | 0.0 | 0.0 | 0.00 | 0.03 | 0.00 | 100 | 1015.6 |
| 20260905080558 | 79 | 210 | 0.0 | 0.0 | 0.00 | 0.03 | 0.00 | 100 | 1015.6 |
| 20260905080106 | 79 | 210 | 0.0 | 0.0 | 0.00 | 0.03 | 0.00 | 100 | 1015.6 |
| 20260905075557 | 79 | 210 | 0.0 | 0.0 | 0.00 | 0.03 | 0.00 | 100 | 1015.6 |
| 20260905075101 | 79 | 209 | 0.0 | 0.0 | 0.00 | 0.03 | 0.00 | 100 | 1015.7 |
| 20260905074614 | 79 | 209 | 0.0 | 0.9 | 0.00 | 0.03 | 0.00 | 100 | 1015.6 |
| 20260905074057 | 79 | 209 | 0.0 | 1.7 | 0.00 | 0.03 | 0.00 | 100 | 1015.7 |
| 20260905073655 | 79 | 209 | 0.0 | 1.7 | 0.00 | 0.03 | 0.00 | 100 | 1015.8 |
| 20260905073055 | 79 | 209 | 0.0 | 1.7 | 0.00 | 0.03 | 0.00 | 100 | 1015.7 |
| 20260905072556 | 79 | 209 | 0.0 | 1.7 | 0.00 | 0.03 | 0.00 | 100 | 1015.7 |
| 20260905072054 | 80 | 209 | 0.0 | 0.0 | 0.00 | 0.03 | 0.00 | 100 | 1015.7 |
| 20260905071555 | 80 | 209 | 0.0 | 0.9 | 0.00 | 0.03 | 0.00 | 100 | 1015.5 |
| 20260905071054 | 80 | 209 | 0.0 | 1.7 | 0.00 | 0.03 | 0.00 | 100 | 1015.6 |
| 20260905070553 | 80 | 209 | 0.0 | 1.7 | 0.00 | 0.03 | 0.00 | 100 | 1015.7 |
| 20260905070107 | 80 | 209 | 0.0 | 1.7 | 0.00 | 0.03 | 0.00 | 100 | 1015.7 |
| 20260905065552 | 80 | 209 | 0.0 | 1.7 | 0.00 | 0.03 | 0.00 | 100 | 1015.8 |
| 20260905065051 | 80 | 209 | 0.0 | 1.7 | 0.00 | 0.03 | 0.00 | 100 | 1015.8 |
| 20260905064551 | 80 | 209 | 0.0 | 1.7 | 0.00 | 0.03 | 0.00 | 100 | 1015.8 |
| 20260905064051 | 80 | 209 | 0.0 | 2.6 | 0.00 | 0.03 | 0.00 | 100 | 1015.8 |
| 20260905063550 | 80 | 209 | 0.0 | 2.6 | 0.00 | 0.03 | 0.00 | 100 | 1015.9 |
| 20260905063049 | 80 | 208 | 0.0 | 0.0 | 0.00 | 0.03 | 0.00 | 100 | 1016.0 |
| 20260905062549 | 80 | 208 | 0.0 | 0.0 | 0.00 | 0.03 | 0.00 | 100 | 1016.1 |
| 20260905062049 | 80 | 208 | 0.0 | 0.0 | 0.00 | 0.03 | 0.00 | 100 | 1016.1 |
| 20260905061600 | 80 | 208 | 0.0 | 0.0 | 0.00 | 0.03 | 0.00 | 100 | 1016.1 |
| 20260905061048 | 81 | 208 | 0.0 | 0.0 | 0.00 | 0.03 | 0.00 | 100 | 1016.2 |
| 20260905060547 | 81 | 208 | 0.0 | 0.0 | 0.00 | 0.03 | 0.00 | 100 | 1016.2 |
| 20260905060047 | 81 | 208 | 0.0 | 0.0 | 0.00 | 0.03 | 0.00 | 100 | 1016.2 |
| 20260905055545 | 81 | 208 | 0.0 | 0.0 | 0.00 | 0.03 | 0.00 | 100 | 1016.5 |
| 20260905055044 | 81 | 208 | 0.0 | 0.0 | 0.00 | 0.03 | 0.00 | 100 | 1016.5 |
| 20260905054550 | 81 | 208 | 0.0 | 0.0 | 0.00 | 0.03 | 0.00 | 100 | 1016.6 |
| 20260905054044 | 81 | 208 | 0.0 | 0.0 | 0.00 | 0.03 | 0.00 | 100 | 1016.7 |
| 20260905053542 | 81 | 208 | 0.0 | 0.0 | 0.00 | 0.03 | 0.00 | 100 | 1016.7 |
| 20260905053045 | 81 | 208 | 0.0 | 0.0 | 0.00 | 0.03 | 0.00 | 100 | 1016.8 |
| 20260905052540 | 81 | 208 | 0.0 | 0.0 | 0.00 | 0.03 | 0.00 | 100 | 1016.9 |
| 20260905052043 | 82 | 208 | 0.0 | 0.0 | 0.00 | 0.03 | 0.00 | 100 | 1017.0 |
| 20260905051544 | 82 | 208 | 0.0 | 0.0 | 0.00 | 0.03 | 0.00 | 100 | 1017.0 |
| 20260905051039 | 82 | 208 | 0.0 | 0.0 | 0.00 | 0.03 | 0.00 | 100 | 1017.0 |
| 20260905050541 | 82 | 207 | 0.0 | 0.0 | 0.00 | 0.03 | 0.00 | 100 | 1017.1 |
| 20260905050045 | 82 | 207 | 0.0 | 0.0 | 0.00 | 0.03 | 0.00 | 100 | 1017.2 |
| 20260905045540 | 82 | 207 | 0.0 | 0.0 | 0.00 | 0.03 | 0.00 | 100 | 1017.3 |
| 20260905045038 | 82 | 207 | 0.0 | 0.0 | 0.00 | 0.03 | 0.00 | 100 | 1017.1 |
| 20260905044540 | 82 | 207 | 0.0 | 0.0 | 0.00 | 0.03 | 0.00 | 100 | 1017.2 |
| 20260905044041 | 82 | 207 | 0.0 | 0.0 | 0.00 | 0.03 | 0.00 | 100 | 1017.1 |
| 20260905043537 | 82 | 207 | 0.0 | 0.0 | 0.00 | 0.03 | 0.00 | 100 | 1017.1 |
| 20260905043039 | 82 | 207 | 0.0 | 0.0 | 0.00 | 0.03 | 0.00 | 100 | 1017.1 |
| 20260905042540 | 82 | 207 | 0.0 | 0.0 | 0.00 | 0.03 | 0.00 | 100 | 1017.0 |
| 20260905042035 | 82 | 205 | 0.0 | 0.0 | 0.00 | 0.03 | 0.00 | 100 | 1017.1 |
| 20260905041541 | 82 | 159 | 0.0 | 1.7 | 0.00 | 0.03 | 0.00 | 100 | 1017.1 |
| 20260905041035 | 83 | 159 | 0.0 | 4.3 | 0.00 | 0.03 | 0.00 | 100 | 1017.1 |
| 20260905040535 | 83 | 135 | 0.0 | 6.1 | 0.00 | 0.03 | 0.00 | 100 | 1017.1 |
| 20260905040036 | 83 | 163 | 1.7 | 6.1 | 0.00 | 0.03 | 0.00 | 100 | 1017.0 |
| 20260905035535 | 83 | 167 | 0.9 | 4.3 | 0.00 | 0.03 | 0.00 | 100 | 1017.1 |
| 20260905035033 | 82 | 162 | 0.9 | 4.3 | 0.00 | 0.03 | 0.00 | 100 | 1017.2 |
| 20260905034538 | 83 | 166 | 0.9 | 4.3 | 0.00 | 0.03 | 0.03 | 100 | 1017.2 |
| 20260905034032 | 83 | 166 | 1.7 | 4.3 | 0.00 | 0.03 | 0.03 | 100 | 1017.3 |
| 20260905033534 | 83 | 165 | 0.9 | 4.3 | 0.00 | 0.03 | 0.03 | 100 | 1017.3 |
| 20260905033043 | 83 | 164 | 0.9 | 4.3 | 0.00 | 0.03 | 0.03 | 100 | 1017.2 |
| 20260905032533 | 83 | 161 | 0.9 | 4.3 | 0.00 | 0.03 | 0.03 | 100 | 1017.1 |
| 20260905032032 | 83 | 161 | 0.9 | 4.3 | 0.00 | 0.03 | 0.03 | 100 | 1017.1 |
| 20260905031539 | 83 | 162 | 0.9 | 4.3 | 0.00 | 0.03 | 0.03 | 100 | 1017.1 |
| 20260905031034 | 83 | 163 | 1.7 | 4.3 | 0.00 | 0.03 | 0.03 | 100 | 1017.1 |
| 20260905030532 | 83 | 166 | 0.9 | 3.5 | 0.00 | 0.03 | 0.03 | 100 | 1017.1 |
| 20260905030039 | 83 | 184 | 0.9 | 2.6 | 0.00 | 0.03 | 0.03 | 100 | 1017.1 |
| 20260905025532 | 83 | 185 | 0.9 | 3.5 | 0.00 | 0.03 | 0.03 | 100 | 1017.2 |
| 20260905025031 | 83 | 187 | 0.9 | 3.5 | 0.00 | 0.03 | 0.03 | 100 | 1017.1 |
| 20260905024531 | 83 | 192 | 0.0 | 1.7 | 0.00 | 0.03 | 0.03 | 100 | 1017.0 |
| 20260905024030 | 83 | 192 | 0.0 | 2.6 | 0.00 | 0.03 | 0.03 | 100 | 1016.9 |
| 20260905023531 | 83 | 194 | 0.9 | 2.6 | 0.00 | 0.03 | 0.03 | 100 | 1017.0 |
| 20260905023033 | 83 | 194 | 0.0 | 1.7 | 0.00 | 0.03 | 0.03 | 100 | 1017.1 |
| 20260905022534 | 83 | 194 | 0.0 | 1.7 | 0.00 | 0.03 | 0.03 | 100 | 1017.0 |
| 20260905022033 | 83 | 194 | 0.0 | 1.7 | 0.00 | 0.03 | 0.03 | 100 | 1017.1 |
| 20260905021531 | 83 | 194 | 0.9 | 1.7 | 0.00 | 0.03 | 0.03 | 100 | 1017.2 |
| 20260905021032 | 83 | 195 | 0.0 | 1.7 | 0.00 | 0.03 | 0.03 | 100 | 1017.2 |
| 20260905020631 | 83 | 195 | 0.0 | 1.7 | 0.00 | 0.03 | 0.03 | 100 | 1017.2 |
| 20260905020030 | 84 | 194 | 0.0 | 2.6 | 0.00 | 0.03 | 0.03 | 100 | 1017.2 |
| 20260905015529 | 84 | 194 | 0.0 | 2.6 | 0.00 | 0.03 | 0.03 | 100 | 1017.1 |
| 20260905015033 | 84 | 194 | 0.0 | 0.0 | 0.00 | 0.03 | 0.03 | 100 | 1017.1 |
| 20260905014529 | 84 | 194 | 0.0 | 0.0 | 0.00 | 0.03 | 0.03 | 100 | 1017.1 |
| 20260905014028 | 84 | 194 | 0.0 | 0.0 | 0.00 | 0.03 | 0.03 | 100 | 1017.0 |
| 20260905013532 | 84 | 194 | 0.0 | 0.0 | 0.00 | 0.03 | 0.03 | 100 | 1017.0 |
| 20260905013028 | 84 | 194 | 0.0 | 0.0 | 0.00 | 0.03 | 0.03 | 100 | 1017.0 |
| 20260905012528 | 84 | 194 | 0.0 | 1.7 | 0.00 | 0.03 | 0.03 | 100 | 1017.0 |
| 20260905012029 | 84 | 194 | 0.0 | 1.7 | 0.00 | 0.03 | 0.03 | 100 | 1017.1 |
| 20260905011528 | 84 | 194 | 0.0 | 1.7 | 0.00 | 0.03 | 0.03 | 100 | 1017.1 |
| 20260905011028 | 84 | 192 | 0.0 | 1.7 | 0.00 | 0.03 | 0.03 | 100 | 1017.0 |
| 20260905010529 | 84 | 192 | 0.0 | 3.5 | 0.00 | 0.03 | 0.03 | 100 | 1017.1 |
| 20260905010028 | 84 | 191 | 0.9 | 3.5 | 0.00 | 0.03 | 0.03 | 100 | 1016.9 |
| 20260905005528 | 85 | 186 | 0.9 | 2.6 | 0.00 | 0.03 | 0.03 | 100 | 1016.9 |
| 20260905005027 | 85 | 221 | 0.9 | 3.5 | 0.00 | 0.03 | 0.03 | 100 | 1016.9 |
| 20260905004528 | 85 | 192 | 0.9 | 4.3 | 0.00 | 0.03 | 0.03 | 100 | 1016.8 |
| 20260905004030 | 85 | 191 | 0.9 | 7.0 | 0.00 | 0.03 | 0.03 | 100 | 1016.8 |
| 20260905003530 | 85 | 200 | 1.7 | 7.0 | 0.00 | 0.03 | 0.03 | 100 | 1016.9 |
| 20260905003027 | 85 | 167 | 3.5 | 7.0 | 0.00 | 0.03 | 0.03 | 100 | 1016.9 |
| 20260905002525 | 85 | 144 | 2.6 | 7.0 | 0.00 | 0.03 | 0.03 | 100 | 1016.7 |
| 20260905002027 | 85 | 163 | 1.7 | 7.0 | 0.00 | 0.03 | 0.03 | 100 | 1016.7 |
| 20260905001527 | 85 | 166 | 3.5 | 7.8 | 0.00 | 0.03 | 0.03 | 100 | 1016.6 |
| 20260905001025 | 85 | 132 | 2.6 | 7.8 | 0.00 | 0.03 | 0.03 | 100 | 1016.6 |
| 20260905000526 | 85 | 139 | 3.5 | 7.8 | 0.00 | 0.03 | 0.03 | 100 | 1016.5 |
| 20260905000026 | 85 | 142 | 2.6 | 9.6 | 0.00 | 0.03 | 0.03 | 100 | 1016.6 |
| 20260904235526 | 85 | 169 | 5.2 | 9.6 | 0.00 | 0.03 | 0.03 | 100 | 1016.5 |
| 20260904235025 | 85 | 176 | 1.7 | 8.7 | 0.00 | 0.03 | 0.03 | 100 | 1016.3 |
| 20260904234536 | 85 | 168 | 4.3 | 8.7 | 0.00 | 0.03 | 0.03 | 100 | 1016.2 |
| 20260904234025 | 85 | 150 | 2.6 | 10.4 | 0.00 | 0.03 | 0.03 | 100 | 1016.2 |
| 20260904233524 | 85 | 167 | 3.5 | 10.4 | 0.00 | 0.03 | 0.03 | 100 | 1016.2 |
| 20260904233025 | 85 | 153 | 5.2 | 11.3 | 0.00 | 0.03 | 0.03 | 100 | 1016.1 |
| 20260904232524 | 85 | 163 | 2.6 | 7.8 | 0.00 | 0.03 | 0.03 | 100 | 1016.0 |
| 20260904232026 | 85 | 184 | 2.6 | 11.3 | 0.00 | 0.03 | 0.03 | 100 | 1016.2 |
| 20260904231524 | 85 | 184 | 5.2 | 11.3 | 0.00 | 0.03 | 0.03 | 100 | 1016.2 |
| 20260904231023 | 86 | 165 | 3.5 | 10.4 | 0.00 | 0.03 | 0.03 | 100 | 1016.0 |
| 20260904230524 | 86 | 141 | 5.2 | 13.0 | 0.00 | 0.03 | 0.03 | 100 | 1016.0 |
| 20260904230023 | 86 | 168 | 4.3 | 15.6 | 0.00 | 0.03 | 0.03 | 100 | 1016.0 |
| 20260904225522 | 86 | 153 | 9.6 | 15.6 | 0.00 | 0.03 | 0.03 | 100 | 1016.1 |
| 20260904225025 | 86 | 157 | 5.2 | 12.2 | 0.00 | 0.03 | 0.03 | 100 | 1016.0 |
| 20260904224522 | 86 | 128 | 1.7 | 12.2 | 0.00 | 0.03 | 0.03 | 100 | 1015.8 |
| 20260904224026 | 86 | 140 | 4.3 | 13.9 | 0.00 | 0.03 | 0.03 | 100 | 1015.6 |
| 20260904223522 | 86 | 139 | 6.1 | 13.9 | 0.00 | 0.03 | 0.03 | 100 | 1015.5 |
| 20260904223022 | 86 | 159 | 4.3 | 11.3 | 0.00 | 0.03 | 0.03 | 100 | 1015.5 |
| 20260904222521 | 86 | 186 | 7.8 | 11.3 | 0.00 | 0.03 | 0.03 | 100 | 1015.5 |
| 20260904222021 | 86 | 146 | 7.0 | 13.9 | 0.00 | 0.03 | 0.03 | 100 | 1015.6 |
| 20260904221523 | 86 | 150 | 6.1 | 13.9 | 0.00 | 0.03 | 0.03 | 100 | 1015.6 |
| 20260904221022 | 87 | 158 | 4.3 | 12.2 | 0.00 | 0.03 | 0.03 | 100 | 1015.5 |
| 20260904220523 | 87 | 158 | 5.2 | 15.6 | 0.00 | 0.03 | 0.03 | 100 | 1015.4 |
| 20260904220021 | 87 | 142 | 6.1 | 15.6 | 0.00 | 0.03 | 0.03 | 100 | 1015.5 |
| 20260904215519 | 87 | 153 | 5.2 | 13.0 | 0.00 | 0.03 | 0.03 | 100 | 1015.6 |
| 20260904215019 | 87 | 156 | 4.3 | 15.6 | 0.00 | 0.03 | 0.03 | 100 | 1015.5 |
| 20260904214522 | 87 | 167 | 6.1 | 15.6 | 0.00 | 0.03 | 0.03 | 100 | 1015.7 |
| 20260904214019 | 87 | 138 | 5.2 | 14.8 | 0.00 | 0.03 | 0.03 | 100 | 1015.7 |
| 20260904213519 | 88 | 143 | 3.5 | 13.0 | 0.00 | 0.03 | 0.03 | 100 | 1015.7 |
| 20260904213018 | 87 | 146 | 7.0 | 13.9 | 0.00 | 0.03 | 0.03 | 100 | 1015.8 |
| 20260904212518 | 87 | 136 | 7.0 | 15.6 | 0.00 | 0.03 | 0.03 | 100 | 1015.8 |
| 20260904212019 | 88 | 145 | 8.7 | 15.6 | 0.00 | 0.03 | 0.03 | 100 | 1015.8 |
| 20260904211518 | 88 | 142 | 6.1 | 13.0 | 0.00 | 0.03 | 0.03 | 100 | 1015.9 |
| 20260904211018 | 88 | 151 | 6.1 | 13.0 | 0.00 | 0.03 | 0.03 | 100 | 1016.1 |
| 20260904210520 | 88 | 167 | 5.2 | 12.2 | 0.00 | 0.03 | 0.03 | 100 | 1016.2 |
| 20260904210019 | 87 | 126 | 6.1 | 12.2 | 0.00 | 0.03 | 0.03 | 100 | 1016.2 |
| 20260904205517 | 87 | 159 | 7.0 | 13.9 | 0.00 | 0.03 | 0.03 | 100 | 1016.1 |
| 20260904205016 | 87 | 136 | 7.8 | 14.8 | 0.00 | 0.03 | 0.03 | 100 | 1016.2 |
| 20260904204518 | 88 | 168 | 6.1 | 12.2 | 0.00 | 0.03 | 0.03 | 100 | 1016.2 |
| 20260904204015 | 88 | 150 | 7.0 | 13.9 | 0.00 | 0.03 | 0.03 | 100 | 1016.4 |
| 20260904203515 | 88 | 132 | 7.0 | 13.9 | 0.00 | 0.03 | 0.03 | 100 | 1016.3 |
| 20260904203016 | 88 | 149 | 3.5 | 13.0 | 0.00 | 0.03 | 0.03 | 100 | 1016.2 |
| 20260904202517 | 87 | 144 | 4.3 | 13.0 | 0.00 | 0.03 | 0.03 | 100 | 1016.2 |
| 20260904202017 | 87 | 146 | 5.2 | 11.3 | 0.00 | 0.03 | 0.03 | 100 | 1016.1 |
| 20260904201513 | 87 | 185 | 2.6 | 11.3 | 0.00 | 0.03 | 0.03 | 100 | 1016.0 |
| 20260904201014 | 87 | 121 | 2.6 | 11.3 | 0.00 | 0.03 | 0.03 | 100 | 1016.0 |
| 20260904200518 | 87 | 148 | 4.3 | 11.3 | 0.00 | 0.03 | 0.03 | 100 | 1016.1 |
| 20260904200016 | 87 | 133 | 2.6 | 8.7 | 0.00 | 0.03 | 0.03 | 100 | 1016.2 |
| 20260904195513 | 87 | 122 | 3.5 | 10.4 | 0.00 | 0.03 | 0.03 | 100 | 1016.3 |
| 20260904195012 | 87 | 162 | 4.3 | 10.4 | 0.00 | 0.03 | 0.03 | 100 | 1016.3 |
| 20260904194512 | 88 | 117 | 4.3 | 12.2 | 0.00 | 0.03 | 0.03 | 100 | 1016.4 |
| 20260904194012 | 87 | 159 | 6.1 | 12.2 | 0.01 | 0.03 | 0.03 | 100 | 1016.4 |
| 20260904193513 | 87 | 109 | 3.5 | 10.4 | 0.02 | 0.03 | 0.03 | 100 | 1016.5 |
| 20260904193013 | 86 | 148 | 4.3 | 10.4 | 0.02 | 0.03 | 0.03 | 100 | 1016.8 |
| 20260904192513 | 86 | 151 | 3.5 | 9.6 | 0.02 | 0.03 | 0.03 | 100 | 1016.9 |
| 20260904192016 | 86 | 127 | 3.5 | 10.4 | 0.03 | 0.03 | 0.03 | 100 | 1016.9 |
| 20260904191518 | 86 | 133 | 6.1 | 10.4 | 0.03 | 0.03 | 0.03 | 100 | 1016.9 |
| 20260904191012 | 86 | 157 | 3.5 | 10.4 | 0.03 | 0.03 | 0.03 | 100 | 1017.0 |
| 20260904190512 | 85 | 144 | 2.6 | 9.6 | 0.03 | 0.03 | 0.03 | 100 | 1017.0 |
| 20260904190015 | 84 | 147 | 4.3 | 9.6 | 0.03 | 0.03 | 0.03 | 100 | 1017.0 |
| 20260904185512 | 84 | 144 | 3.5 | 8.7 | 0.03 | 0.03 | 0.03 | 100 | 1017.1 |
| 20260904185012 | 83 | 116 | 1.7 | 7.0 | 0.03 | 0.03 | 0.03 | 100 | 1017.1 |
| 20260904184511 | 82 | 112 | 1.7 | 7.8 | 0.03 | 0.03 | 0.03 | 100 | 1017.1 |
| 20260904184011 | 82 | 184 | 4.3 | 7.8 | 0.02 | 0.02 | 0.02 | 100 | 1017.3 |
| 20260904183511 | 82 | 157 | 3.5 | 9.6 | 0.01 | 0.01 | 0.01 | 100 | 1017.3 |
| 20260904183010 | 82 | 171 | 5.2 | 11.3 | 0.01 | 0.01 | 0.01 | 100 | 1017.4 |
| 20260904182513 | 83 | 179 | 3.5 | 13.9 | 0.01 | 0.01 | 0.01 | 100 | 1017.4 |
| 20260904182011 | 84 | 196 | 6.1 | 16.5 | 0.00 | 0.00 | 0.00 | 100 | 1017.4 |
| 20260904181509 | 85 | 149 | 9.6 | 16.5 | 0.00 | 0.00 | 0.00 | 100 | 1017.3 |
| 20260904181013 | 86 | 157 | 6.1 | 13.0 | 0.00 | 0.00 | 0.00 | 100 | 1017.4 |
| 20260904180510 | 87 | 159 | 5.2 | 12.2 | 0.00 | 0.00 | 0.00 | 100 | 1017.4 |
| 20260904180008 | 88 | 145 | 6.1 | 12.2 | 0.00 | 0.00 | 0.00 | 100 | 1017.5 |
| 20260904175507 | 89 | 115 | 6.1 | 13.0 | 0.00 | 0.00 | 0.00 | 100 | 1017.6 |
| 20260904175005 | 89 | 167 | 6.1 | 10.4 | 0.00 | 0.00 | 0.00 | 100 | 1017.6 |
| 20260904174504 | 89 | 51 | 5.2 | 12.2 | 0.00 | 0.00 | 0.00 | 100 | 1017.6 |
| 20260904174002 | 89 | 165 | 5.2 | 12.2 | 0.00 | 0.00 | 0.00 | 100 | 1017.6 |
| 20260904173501 | 90 | 153 | 3.5 | 12.2 | 0.00 | 0.00 | 0.00 | 100 | 1017.6 |
| 20260904173103 | 89 | 127 | 4.3 | 12.2 | 0.00 | 0.00 | 0.00 | 100 | 1017.6 |
| 20260904172558 | 88 | 132 | 3.5 | 11.3 | 0.00 | 0.00 | 0.00 | 100 | 1017.6 |
| 20260904172057 | 89 | 133 | 2.6 | 10.4 | 0.00 | 0.00 | 0.00 | 100 | 1017.7 |
| 20260904171601 | 89 | 123 | 4.3 | 9.6 | 0.00 | 0.00 | 0.00 | 100 | 1017.8 |
| 20260904171055 | 89 | 122 | 3.5 | 13.0 | 0.00 | 0.00 | 0.00 | 100 | 1017.7 |
| 20260904170552 | 89 | 125 | 5.2 | 13.0 | 0.00 | 0.00 | 0.00 | 100 | 1017.7 |
| 20260904170054 | 89 | 109 | 3.5 | 7.8 | 0.00 | 0.00 | 0.00 | 100 | 1017.7 |
| 20260904165549 | 90 | 110 | 2.6 | 9.6 | 0.00 | 0.00 | 0.00 | 100 | 1017.8 |
| 20260904165048 | 90 | 155 | 4.3 | 9.6 | 0.00 | 0.00 | 0.00 | 100 | 1017.9 |
| 20260904164548 | 89 | 124 | 3.5 | 7.0 | 0.00 | 0.00 | 0.00 | 100 | 1017.9 |
| 20260904164044 | 89 | 146 | 3.5 | 9.6 | 0.00 | 0.00 | 0.00 | 100 | 1017.9 |
| 20260904163543 | 90 | 132 | 4.3 | 7.8 | 0.00 | 0.00 | 0.00 | 100 | 1018.1 |
| 20260904163044 | 91 | 170 | 0.9 | 6.1 | 0.00 | 0.00 | 0.00 | 100 | 1018.0 |
| 20260904162540 | 91 | 133 | 2.6 | 7.8 | 0.00 | 0.00 | 0.00 | 100 | 1017.9 |
| 20260904162038 | 90 | 211 | 3.5 | 7.8 | 0.00 | 0.00 | 0.00 | 100 | 1017.9 |
| 20260904161539 | 91 | 240 | 0.9 | 5.2 | 0.00 | 0.00 | 0.00 | 100 | 1017.9 |
| 20260904161035 | 90 | 289 | 1.7 | 8.7 | 0.00 | 0.00 | 0.00 | 100 | 1018.1 |
| 20260904160534 | 89 | 246 | 4.3 | 8.7 | 0.00 | 0.00 | 0.00 | 100 | 1018.3 |
| 20260904160046 | 90 | 206 | 1.7 | 6.1 | 0.00 | 0.00 | 0.00 | 100 | 1018.3 |
| 20260904155532 | 89 | 167 | 2.6 | 10.4 | 0.00 | 0.00 | 0.00 | 100 | 1018.5 |
| 20260904155029 | 89 | 169 | 5.2 | 10.4 | 0.00 | 0.00 | 0.00 | 100 | 1018.5 |
| 20260904154534 | 90 | 170 | 1.7 | 7.0 | 0.00 | 0.00 | 0.00 | 100 | 1018.6 |
| 20260904154030 | 90 | 203 | 2.6 | 7.0 | 0.00 | 0.00 | 0.00 | 100 | 1018.5 |
| 20260904153525 | 89 | 186 | 3.5 | 7.0 | 0.00 | 0.00 | 0.00 | 100 | 1018.4 |
| 20260904153024 | 89 | 181 | 2.6 | 7.0 | 0.00 | 0.00 | 0.00 | 100 | 1018.4 |
| 20260904152523 | 89 | 190 | 2.6 | 7.0 | 0.00 | 0.00 | 0.00 | 100 | 1018.4 |
| 20260904152020 | 89 | 234 | 1.7 | 7.0 | 0.00 | 0.00 | 0.00 | 100 | 1018.5 |
| 20260904151525 | 88 | 170 | 3.5 | 8.7 | 0.00 | 0.00 | 0.00 | 100 | 1018.5 |
| 20260904151019 | 88 | 193 | 2.6 | 8.7 | 0.00 | 0.00 | 0.00 | 100 | 1018.5 |
| 20260904150518 | 88 | 159 | 4.3 | 8.7 | 0.00 | 0.00 | 0.00 | 100 | 1018.5 |
| 20260904150031 | 88 | 247 | 2.6 | 9.6 | 0.00 | 0.00 | 0.00 | 100 | 1018.5 |
| 20260904145515 | 87 | 241 | 4.3 | 9.6 | 0.00 | 0.00 | 0.00 | 100 | 1018.4 |
| 20260904145011 | 88 | 208 | 3.5 | 7.0 | 0.00 | 0.00 | 0.00 | 100 | 1018.4 |
| 20260904144510 | 88 | 154 | 2.6 | 7.8 | 0.00 | 0.00 | 0.00 | 100 | 1018.2 |
| 20260904144008 | 88 | 175 | 2.6 | 7.0 | 0.00 | 0.00 | 0.00 | 100 | 1018.2 |
| 20260904143507 | 87 | 161 | 3.5 | 7.0 | 0.00 | 0.00 | 0.00 | 100 | 1018.2 |
| 20260904143006 | 87 | 229 | 0.9 | 5.2 | 0.00 | 0.00 | 0.00 | 100 | 1018.1 |
| 20260904142504 | 87 | 203 | 1.7 | 8.7 | 0.00 | 0.00 | 0.00 | 100 | 1018.1 |
| 20260904142001 | 87 | 204 | 2.6 | 7.8 | 0.00 | 0.00 | 0.00 | 100 | 1018.1 |
| 20260904141605 | 87 | 155 | 2.6 | 8.7 | 0.00 | 0.00 | 0.00 | 100 | 1018.0 |
| 20260904141500 | 87 | 159 | 1.7 | 8.7 | 0.00 | 0.00 | 0.00 | 100 | 1018.0 |
| 20260904141059 | 86 | 230 | 2.6 | 8.7 | 0.00 | 0.00 | 0.00 | 100 | 1017.8 |
| 20260904140559 | 86 | 205 | 1.7 | 6.1 | 0.00 | 0.00 | 0.00 | 100 | 1017.8 |
| 20260904140105 | 86 | 186 | 0.9 | 6.1 | 0.00 | 0.00 | 0.00 | 100 | 1017.7 |
| 20260904135558 | 86 | 208 | 1.7 | 6.1 | 0.00 | 0.00 | 0.00 | 100 | 1017.7 |
| 20260904135055 | 86 | 233 | 2.6 | 6.1 | 0.00 | 0.00 | 0.00 | 100 | 1017.6 |
| 20260904134603 | 86 | 217 | 1.7 | 8.7 | 0.00 | 0.00 | 0.00 | 100 | 1017.7 |
| 20260904134050 | 86 | 233 | 1.7 | 8.7 | 0.00 | 0.00 | 0.00 | 100 | 1017.8 |
| 20260904133549 | 85 | 202 | 1.7 | 6.1 | 0.00 | 0.00 | 0.00 | 100 | 1017.8 |
| 20260904133053 | 85 | 228 | 1.7 | 7.0 | 0.00 | 0.00 | 0.00 | 100 | 1017.8 |
| 20260904132546 | 85 | 235 | 1.7 | 6.1 | 0.00 | 0.00 | 0.00 | 100 | 1017.8 |
| 20260904132047 | 85 | 235 | 1.7 | 7.8 | 0.00 | 0.00 | 0.00 | 100 | 1017.7 |
| 20260904131546 | 85 | 221 | 2.6 | 7.8 | 0.00 | 0.00 | 0.00 | 100 | 1017.6 |
| 20260904131044 | 84 | 219 | 1.7 | 6.1 | 0.00 | 0.00 | 0.00 | 100 | 1017.6 |
| 20260904130541 | 84 | 212 | 1.7 | 6.1 | 0.00 | 0.00 | 0.00 | 100 | 1017.5 |
| 20260904130050 | 84 | 218 | 0.0 | 5.2 | 0.00 | 0.00 | 0.00 | 100 | 1017.5 |
| 20260904125539 | 83 | 211 | 0.9 | 4.3 | 0.00 | 0.00 | 0.00 | 100 | 1017.5 |
| 20260904125038 | 83 | 192 | 1.7 | 4.3 | 0.00 | 0.00 | 0.00 | 100 | 1017.4 |
| 20260904124538 | 82 | 167 | 1.7 | 3.5 | 0.00 | 0.00 | 0.00 | 100 | 1017.3 |
| 20260904124037 | 82 | 200 | 0.0 | 2.6 | 0.00 | 0.00 | 0.00 | 100 | 1017.4 |
| 20260904123537 | 81 | 180 | 0.0 | 2.6 | 0.00 | 0.00 | 0.00 | 100 | 1017.4 |
| 20260904123036 | 81 | 164 | 0.0 | 0.0 | 0.00 | 0.00 | 0.00 | 100 | 1017.4 |
| 20260904122536 | 80 | 157 | 0.0 | 0.0 | 0.00 | 0.00 | 0.00 | 100 | 1017.3 |
| 20260904122037 | 80 | 157 | 0.0 | 0.0 | 0.00 | 0.00 | 0.00 | 100 | 1017.2 |
| 20260904121539 | 79 | 157 | 0.0 | 0.0 | 0.00 | 0.00 | 0.00 | 100 | 1017.2 |
| 20260904121036 | 79 | 157 | 0.0 | 0.0 | 0.00 | 0.00 | 0.00 | 100 | 1017.4 |
| 20260904120539 | 79 | 157 | 0.0 | 0.0 | 0.00 | 0.00 | 0.00 | 100 | 1017.2 |
| 20260904120034 | 79 | 157 | 0.0 | 0.0 | 0.00 | 0.00 | 0.00 | 100 | 1017.1 |
| 20260904115533 | 79 | 157 | 0.0 | 0.0 | 0.00 | 0.00 | 0.00 | 100 | 1017.0 |
| 20260904115034 | 79 | 157 | 0.0 | 0.0 | 0.00 | 0.00 | 0.00 | 100 | 1017.0 |
| 20260904114534 | 79 | 157 | 0.0 | 0.0 | 0.00 | 0.00 | 0.00 | 100 | 1017.0 |
| 20260904114034 | 79 | 157 | 0.0 | 0.0 | 0.00 | 0.00 | 0.00 | 100 | 1017.0 |
| 20260904113535 | 79 | 157 | 0.0 | 0.0 | 0.00 | 0.00 | 0.00 | 100 | 1016.9 |
| 20260904113035 | 79 | 157 | 0.0 | 0.0 | 0.00 | 0.00 | 0.00 | 100 | 1016.8 |
| 20260904112533 | 79 | 157 | 0.0 | 0.0 | 0.00 | 0.00 | 0.00 | 100 | 1016.8 |
| 20260904112032 | 79 | 157 | 0.0 | 0.0 | 0.00 | 0.00 | 0.00 | 100 | 1016.8 |